Other Public Products
Issued by NWS Grand Forks, ND

Home | Current Version | Previous Version | Text Only | Print | Product List | Glossary Off
Versions: 1 2 3 4 5 6 7 8 9 10 11 12 13 14 15 16 17 18 19 20 21 22 23 24 25 26 27 28 29 30 31 32 33 34 35 36 37 38 39 40 41 42 43 44 45 46 47 48 49 50

000
FPUS83 KFGF 060310
OPUFGF
PRAIRIE TO PINES WEATHER ROUNDUP
NATIONAL WEATHER SERVICE EASTERN NORTH DAKOTA/GRAND FORKS ND
900 PM CST MON DEC 05 2016

 **SATELLITE DATA USED TO AUGMENT SKY COVER AT AUTOMATED STATIONS**
 *****  WEATHER ACROSS EASTERN NORTH DAKOTA  *****

CITY           SKY/WX    TMP DP  RH WIND       PRES   REMARKS
GRAND FORKS    HVY SNOW  30  27  88 NE15      29.49F VSB 1/4 WCI  19
GRAND FORKS AF SNOW      28  28 100 NE17      29.49F VSB 1/2 WCI  16
GRAND CITY NWS   N/A     28 N/A N/A NE13        N/A  WCI  18
BUXTON         NOT AVBL
DEVILS LAKE    LGT SNOW  27  27 100 NE20      29.52F FOG     WCI  13
FARGO          LGT SNOW  34  31  88 VRB3      29.41F FOG
WAHPETON ARPT  CLOUDY    32  30  93 SW22G28   29.46R WCI  19
$$

 *****  WEATHER ACROSS CENTRAL AND WESTERN NORTH DAKOTA  *****

CITY           SKY/WX    TMP DP  RH WIND       PRES   REMARKS
JAMESTOWN      SNOW      23  21  92 NW25G31   29.51F VSB 1/2 WCI   7
BISMARCK       LGT SNOW  14  11  87 W26G38    29.70S FOG     WCI  -6
MINOT          LGT SNOW  23  20  88 NW24      29.63S FOG     WCI   7
MINOT AFB      LGT SNOW  22  20  91 NW23      29.62F VSB 3/4 WCI   6
GARRISON         N/A     16  12  84 NW38G47   29.66S WCI  -6
WILLISTON      LGT SNOW  11   6  81 NW28G40   29.88R VSB 3/4 WCI -10
DICKINSON      MIX PCPN   6   2  83 W31G41    29.78F VSB 3/4 WCI -18
HETTINGER      CLOUDY     8   2  76 NW32G45   29.82R HAZE    WCI -16
$$

 *****  OTHER OBSERVATIONS NORTHEAST NORTH DAKOTA  *****

CITY           SKY/WX    TMP DP  RH WIND       PRES   REMARKS
WALHALLA         N/A     28  28 100 N14       29.63F WCI  17
LANGDON        MIX PCPN  28  28 100 NE23G30   29.56F WCI  14
CAVALIER         N/A     30  28  93 N10G16    29.61F WCI  21
GRAFTON        CLOUDY    30  28  93 NE16      29.57F WCI  19
CANDO          LGT SNOW  27  27 100 NE17G25   29.59F WCI  14
FORT TOTTEN      N/A     27  27 100 NE7       29.95S WCI  19
ROLLA          MIX PCPN  25  25 100 NE15      29.60F WCI  12
RUGBY          LGT SNOW  23  23 100 N9        29.58F WCI  13
 ***** THE ABOVE OBSERVATIONS ARE NON NWS ARE NOT QUALITY
        CONTROLLED AND MAY MIS-REPORT RAIN FOR SNOW...
$$

 *****  OTHER OBSERVATIONS SOUTHEAST NORTH DAKOTA *****

CITY           SKY/WX    TMP DP  RH WIND       PRES   REMARKS
COOPERSTOWN    LGT SNOW  27  27 100 N15       29.46F VSB 1   WCI  15
VALLEY CITY    FOG       28  28 100 W13       29.48S VSB 3/4 WCI  18
OAKES          NOT AVBL
GWINNER        CLOUDY    28  27  93 W26G36    29.49R WCI  13
SHEYENNE NWR     N/A     32  31  95 W12       29.95S WCI  23
BUFFALO        NOT AVBL
WYNDMERE       NOT AVBL
 ***** THE ABOVE OBSERVATIONS ARE NON NWS ARE NOT QUALITY
       CONTROLLED AND MAY MIS-REPORT RAIN FOR SNOW...
$$

  *****  WEATHER ACROSS NORTHERN MINNESOTA  *****

CITY           SKY/WX    TMP DP  RH WIND       PRES   REMARKS
FLAG ISLAND    CLOUDY    32  27  80 E16G22    29.63F WCI  21
WARROAD        CLOUDY    30  27  86 E15       29.61F WCI  19
ROSEAU         CLOUDY    30  27  86 E17G23    29.59F WCI  18
HALLOCK        CLOUDY    32  28  86 NE14G23   29.58F WCI  22
THF RVR FALLS  LGT SNOW  28  27  93 NE21      29.48F VSB 1   WCI  15
HALSTAD          N/A     32  32  99 E10         N/A  WCI  24
FOSSTON        LGT SNOW  30  28  93 E10G17    29.45F WCI  21
BAUDETTE       LGT SNOW  30  26  85 E14       29.60F FOG     WCI  19
WASKISH        LGT SNOW  30  28  93 E14       29.55F WCI  20
CROOKSTON      LGT SNOW  30  28  93 E16G22    29.47F WCI  19
$$
  *****  WEATHER ACROSS CENTRAL AND WEST MINNESOTA  *****

CITY           SKY/WX    TMP DP  RH WIND       PRES   REMARKS
BEMIDJI        LGT SNOW  32  31  98 E15       29.47F WCI  22
PARK RAPIDS    CLOUDY    35  30  82 SE14      29.45F
WADENA         CLOUDY    34  32  93 SE12      29.44F
DETROIT LAKES  CLOUDY    34  32  93 SE12      29.42F
MOORHEAD       CLOUDY    34  32  93 S7        29.43F
FERGUS FALLS   CLOUDY    34  34 100 SW18      29.48S WCI  23
ELBOW LAKE     CLOUDY    33  32  95 SW20G26   29.47R WCI  22
MORRIS MN      CLOUDY    34  30  86 W17       29.52R WCI  23
STAPLES        CLOUDY    34  34 100 SE9G16    29.47F
WHEATON        CLOUDY    34  30  86 SW23      29.54R WCI  22
$$
  *****  WEATHER ELSEWHERE ACROSS MINNESOTA  *****

CITY           SKY/WX    TMP DP  RH WIND       PRES   REMARKS
DULUTH         LGT SNOW  34  33  96 E17       29.64F FOG     WCI  23
INTRNTL FALLS  HVY SNOW  29  27  92 E13G20    29.63F VSB 1/4 WCI  19
ELY            CLOUDY    30  28  93 E14       29.65F WCI  20
CLOQUET        LGT SNOW  34  30  86 E12G18    29.63F
BRAINERD       CLOUDY    35  32  88 SE10G21   29.52F
HIBBING        LGT SNOW  32  31  96 SE17      29.60F FOG     WCI  21
ALEXANDRIA     CLOUDY    34  31  88 SW17      29.49R WCI  23
SAINT CLOUD    CLOUDY    38  35  89 S16       29.56R
MINNEAPOLIS    CLOUDY    38  31  76 S12G18    29.66R
$$

  *****  WEATHER ACROSS SOUTH DAKOTA  *****

CITY           SKY/WX    TMP DP  RH WIND       PRES   REMARKS
SIOUX FALLS    CLOUDY    30  25  81 W18G28    29.74R WCI  18
BROOKINGS      CLOUDY    27  22  81 W29G36    29.66R WCI  11
WATERTOWN      CLOUDY    25  20  81 W21G38    29.61R WCI  11
HURON          CLOUDY    24  17  74 W25G31    29.77R WCI   8
SISSETON         N/A     29  24  82 NW30G38   29.53R WCI  13
ABERDEEN       CLOUDY    22  15  75 W29G40    29.66R WCI   4
MITCHELL       CLOUDY    27  21  78 NW20G26   29.81R WCI  13
PIERRE         PTCLDY    19  11  70 W37G48    29.83R BLWGSNOWWCI  -2
MOBRIDGE       CLOUDY    15   8  73 NW29G38   29.75R BLWGSNOWWCI  -5
RAPID CITY     CLEAR     16   9  74 N14       29.86R WCI   2
$$

  *****  SOME WEATHER IN NEARBY STATES *****

CITY           SKY/WX    TMP DP  RH WIND       PRES   REMARKS
GLASGOW MT     CLOUDY     7  -1  70 NW30G37   30.04S WCI -16
GREAT FALLS MT CLOUDY     7   1  76 NW7       30.09R WCI  -5
CHEYENNE WY    MOCLDY    17  -6  35 NW17G25   29.87R WCI   1
SCOTTSBLUFF NE CLEAR     20  10  65 W13       29.93R WCI   7
OMAHA NE       LGT RAIN  43  37  79 NW18      29.77R
DES MOINES IA  CLOUDY    38  35  89 SE9       29.77S
DAVENPORT IA   CLOUDY    32  30  92 SE15      29.89R WCI  22
CHICAGO IL     CLOUDY    31  29  92 S10       29.97S FOG     WCI  22
EAU CLAIRE WI  CLOUDY    36  30  79 SE15      29.74F
LA CROSSE WI   CLOUDY    37  31  78 S9        29.80S
$$

  *****  SOME NATIONAL WEATHER *****

CITY           SKY/WX    TMP DP  RH WIND       PRES   REMARKS
LA GUARDIA NY  MOCLDY    46  32  58 NW8       30.09R
RALEIGH NC     CLOUDY    49  46  90 NE7       30.07F
ATLANTA GA     LGT RAIN  52  52 100 E16G23    29.86F VSB 1/2
NEW ORLEANS LA HVY RAIN  64  64 100 SE12      29.69S FOG
OKLAHOMA CITY  MOCLDY    44  42  93 S9        29.69S
ALBUQUERQUE NM PTCLDY    46  15  28 NW5       29.87R
SALT LAKE CITY MOCLDY    29   7  39 E5        30.02S WCI  24
LOS ANGELES CA PTCLDY    58  55  90 SW5       29.94R
BOISE ID       CLEAR     24  16  71 SE8       30.03F WCI  15
SEATTLE WA     CLOUDY    37  36  96 SE6       30.01S
$$

*** WEATHER ACROSS MANITOBA...SASKATCHEWAN AND ONTARIO ***
                ***ONTARIO***

CITY           SKY/WX    TMP DP  RH WIND       PRES   REMARKS
GERALDTON      FLURRIES  28  27  93 CALM      29.88R
THUNDER BAY    MOCLDY    28  28 100 E2        29.85F
SIOUX LOOKOUT  CLOUDY    30  27  86 E5        29.78S
TORONTO        MOCLDY    37  30  75 W12       30.06R
BIG TROUT LK   FLURRIES  25  23  93 VRB2      29.87
PICKLE LAKE    NOT AVBL
DRYDEN         CLOUDY    30  27  86 E9        29.72F WCI  22
KENORA         FLURRIES  30  27  86 E10       29.67F WCI  21
$$
                *** MANITOBA***

CITY           SKY/WX    TMP DP  RH WIND       PRES   REMARKS
BRANDON        LGT SNOW  25  23  93 NE20G29   29.69S DRFTSNOWWCI  11
DAUPHIN        LGT SNOW  23  21  93 N17G23    29.82R VSB 3/4 WCI   9
ISLAND LAKE    NOT AVBL
PILOT MOUND      N/A     27  25  93 NE17G24     N/A  WCI  14
THE PAS        CLOUDY    19  14  79 W9G18     29.91R WCI   9
THOMPSON       LGT SNOW  23  21  93 NE2       29.88R
WINNIPEG       FLURRIES  28  27  93 NE13      29.70F WCI  18
LYNN LAKE      LGT SNOW  21  21 100 N2        29.86R
CHURCHILL      FLURRIES  21  19  93 N7        29.94S WCI  13
GILLAM         CLOUDY    19  16  86 N3        29.92R
$$
                ***SASKATCHEWAN***

CITY           SKY/WX    TMP DP  RH WIND       PRES   REMARKS
ESTEVAN        SNOW      12  10  92 NW35G43   29.80R VSB 1/4 WCI -10
KINDERSLEY     FLURRIES   1  -4  78 NW15G24   30.09R WCI -18
LLOYDMINSTER   FLURRIES   0  -6  78 NW18G25   30.12R WCI -22
PRINCE ALBERT  FLURRIES   9   1  72 NW14      30.02R WCI  -8
REGINA         FLURRIES  10   5  79 NW23G29   29.95R WCI -10
YORKTON        FLURRIES  16  14  93 NW24G30   29.85R WCC1F1C2F2C3F3C4F4C5F5C6F6C7F7C8F8C9F9CaFaCbFbCcFcCdFdCe!


USA.gov is the U.S. government's official web portal to all federal, state and local government web resources and services.